Parsons, KS

1:09 PM CST on November 20, 2019 (GMT -0600)
Tri-City

Weather History for KPPF - July, 2019

Change the Weather History Date:

Thursday, July 18, 2019

  Actual Average Record
Temperature  
Mean Temperature 86 °F -  
Max Temperature 96 °F 91 °F 112 °F (1954)
Min Temperature 77 °F 70 °F 55 °F (1984)
Cooling Degree Days 21    
Growing Degree Days 36 (Base 50)    
Moisture  
Dew Point 74 °F    
Average Humidity 69    
Maximum Humidity 88    
Minimum Humidity 54    
Precipitation  
Precipitation 0.00 in - - ()
Sea Level Pressure  
Sea Level Pressure 29.85 in    
Wind  
Wind Speed 10 mph (South)    
Max Wind Speed 16 mph    
Max Gust Speed 31 mph    
Visibility 10 miles    
Events      
Averages and records for this station are not official NWS values.
T = Trace of Precipitation, MM = Missing Value Source: NWS Daily Summary

Daily Weather History Graph

Daily Weather History Graph

Search for Another Location

Airport or City:

Astronomy

Jul. 18, 2019 Rise Set
Actual Time 6:15 AM CDT 8:40 PM CDT
Civil Twilight 5:45 AM CDT 9:10 PM CDT
Nautical Twilight 5:08 AM CDT 9:47 PM CDT
Astronomical Twilight 4:27 AM CDT 10:28 PM CDT
Moon 10:08 PM CDT (7/18) 7:44 AM CDT (7/18)
Length of Visible Light 15h 25m
Length of Day
14h 25m
Full, 97% of the Moon is Illuminated
Jul 18
Full
Jul 24
Last Quarter
Jul 31
New
Aug 7
First Quarter
Aug 15
Full

Hourly Weather History & Observations

Time (CDT) Temp. Heat Index Dew Point Humidity Pressure Visibility Wind Dir Wind Speed Gust Speed Precip Events Conditions
1:52 AM 81.0 °F 85.8 °F 73.0 °F 77% 29.91 in 10.0 mi South 8.1 mph - N/A   Clear
2:52 AM 80.1 °F 84.2 °F 73.0 °F 79% 29.89 in 10.0 mi South 8.1 mph - N/A   Clear
3:52 AM 79.0 °F - 73.0 °F 82% 29.88 in 10.0 mi South 8.1 mph - N/A   Clear
4:52 AM 78.1 °F - 73.0 °F 84% 29.89 in 10.0 mi South 8.1 mph - N/A   Clear
5:52 AM 77.0 °F - 73.0 °F 88% 29.90 in 10.0 mi South 4.6 mph - N/A   Clear
6:52 AM 77.0 °F - 73.0 °F 88% 29.89 in 10.0 mi South 6.9 mph - N/A   Clear
7:52 AM 81.0 °F 86.2 °F 73.9 °F 79% 29.90 in 10.0 mi SSW 10.4 mph 19.6 mph N/A   Clear
8:52 AM 84.0 °F 91.2 °F 73.9 °F 72% 29.90 in 10.0 mi SSW 10.4 mph 21.9 mph N/A   Clear
9:52 AM 86.0 °F 95.1 °F 75.0 °F 70% 29.88 in 10.0 mi SSW 15.0 mph 23.0 mph N/A   Clear
10:52 AM 89.1 °F 99.1 °F 75.0 °F 63% 29.86 in 10.0 mi SSW 15.0 mph 24.2 mph N/A   Clear
11:52 AM 91.9 °F 103.9 °F 75.9 °F 59% 29.86 in 10.0 mi South 16.1 mph 23.0 mph N/A   Clear
12:52 PM 93.0 °F 105.3 °F 75.9 °F 57% 29.85 in 10.0 mi SSW 15.0 mph 21.9 mph N/A   Clear
1:52 PM 93.9 °F 106.9 °F 75.9 °F 56% 29.83 in 10.0 mi South 12.7 mph 25.3 mph N/A   Clear
2:52 PM 95.0 °F 109.7 °F 77.0 °F 56% 29.82 in 10.0 mi South 13.8 mph 23.0 mph N/A   Partly Cloudy
3:52 PM 95.0 °F 108.2 °F 75.9 °F 54% 29.81 in 10.0 mi South 13.8 mph 31.1 mph N/A   Clear
4:52 PM 93.9 °F 106.9 °F 75.9 °F 56% 29.81 in 10.0 mi South 12.7 mph 21.9 mph N/A   Partly Cloudy
5:52 PM 93.9 °F 106.9 °F 75.9 °F 56% 29.79 in 10.0 mi South 13.8 mph 28.8 mph N/A   Clear
6:52 PM 91.9 °F 103.2 °F 75.0 °F 58% 29.78 in 10.0 mi South 11.5 mph 23.0 mph N/A   Clear
7:52 PM 89.1 °F 97.0 °F 73.0 °F 59% 29.80 in 10.0 mi South 12.7 mph 21.9 mph N/A   Clear
8:52 PM 84.9 °F 92.1 °F 73.9 °F 69% 29.82 in 10.0 mi South 8.1 mph - N/A   Clear
9:52 PM 84.0 °F 90.2 °F 73.0 °F 69% 29.83 in 10.0 mi South 9.2 mph - N/A   Clear
10:52 PM 82.0 °F 87.4 °F 73.0 °F 74% 29.86 in 10.0 mi South 6.9 mph - N/A   Clear
11:52 PM 81.0 °F 85.8 °F 73.0 °F 77% 29.86 in 10.0 mi South 8.1 mph - N/A   Clear